Vertical_Velocity
1 0 1 -0 -2 -3 1 0 -1 1 -0 -0 0 0 -1 -1 -1 -1 -1 1 1 1 -1 0 1 -1 -0 1 0 0 1 0 -1 -1 1 1 1 1 -1 1 0 -1 -0
2 0 -0 -2 -1 -3 -3 -2 -1 -1 -1 -0 -2 1 2 -0 0 -1 -1 -2 1 1 2 -0 1 1 0 1 -1 1 1 1 1 0 0 0 1 1 -1 -0 0 -2 0
-4 3 2 1 -1 -2 -2 -1 -1 -1 -1 -2 -2 -0 2 0 0 1 0 -0 -2 1 1 1 -1 1 -1 1 0 -1 1 2 0 0 1 2 1 2 -0 -1 -0 0 -0
-1 -4 -1 -1 1 0 -2 -2 -1 -1 -1 -2 -1 0 -1 -1 1 3 1 -0 -1 0 0 1 1 -0 0 1 0 -0 1 1 -1 -2 -1 -0 1 -0 -0 -0 0 -0 -0
-0 2 -2 1 -2 1 1 -0 -1 -1 -1 -1 -1 -1 -1 -1 -1 1 1 0 1 1 0 2 -1 -1 -1 1 0 0 -1 0 0 -1 0 -0 0 1 -1 -0 -1 -0 1
-1 0 -0 1 0 -1 1 1 -1 -1 0 1 -1 0 -0 -0 -0 -2 1 1 2 2 -0 1 -1 1 0 -1 2 1 -1 0 0 1 0 -0 0 1 -0 -0 -0 1 0
2 -1 6 -2 2 4 -1 2 -0 -1 -1 -0 2 1 -1 -0 -1 1 1 -0 1 3 1 1 0 0 -1 0 1 1 -1 1 0 2 1 1 1 -1 0 0 -1 2 -0
0 2 -2 4 -0 3 3 3 -2 1 -1 -1 0 0 1 2 -1 2 1 -0 -1 2 1 1 2 0 -1 0 1 1 -1 -0 0 1 2 2 1 -1 1 1 1 1 1
-4 -1 0 1 2 -0 3 5 1 -1 1 -1 1 0 -0 -0 1 -0 2 2 -1 -0 1 1 1 -0 2 1 1 1 -1 -1 1 1 1 -1 1 1 0 0 2 1 -0
-0 -0 -1 -2 1 1 -2 1 4 -2 -3 0 -0 1 -1 1 1 1 2 1 1 -1 -1 1 0 1 2 0 2 -1 -0 1 -0 1 1 1 1 1 0 1 0 0 -0
0 -0 0 -3 0 1 2 -0 2 4 2 0 1 0 -1 2 1 -0 -1 1 4 2 0 1 -1 2 2 1 1 1 -0 1 -1 2 0 2 2 -0 0 0 1 -0 0
5 3 -2 -0 -2 -1 -2 0 1 -1 -4 2 3 1 -1 -1 -1 1 1 -1 3 2 0 1 1 0 1 -0 1 1 2 1 -1 2 0 0 2 1 -0 -1 -0 -1 -0
4 1 2 -0 1 1 2 -1 1 2 3 2 -0 2 -2 0 1 0 3 0 -0 -1 0 0 2 0 -1 1 1 3 -0 1 -2 2 1 4 -0 0 0 -2 -1 0 -1
1 3 3 4 -0 -0 1 0 -1 0 -2 4 -3 3 -1 -1 0 -1 1 -1 2 -1 -1 0 1 2 1 0 2 2 3 -1 -2 1 -0 4 0 3 0 -1 0 2 1
-0 1 5 -1 3 -0 1 3 0 1 2 -2 1 -0 5 0 -0 -1 1 -0 -0 1 -0 -2 0 1 1 1 1 3 2 1 0 -3 4 -2 3 2 2 1 1 -1 -1
-3 2 7 11 3 1 3 -1 2 -1 3 2 2 4 -1 -0 -0 0 -1 3 2 -1 0 -1 -3 0 0 3 -0 2 0 2 1 -2 1 -1 2 1 3 2 1 -0 0
6 1 -3 -1 4 4 0 2 -1 3 -1 -0 3 -3 4 0 0 1 -2 -1 -1 -1 -2 1 0 -2 1 3 1 1 1 0 4 3 -1 3 -0 2 0 0 -0 1 -0
3 5 2 1 -5 3 5 5 6 2 1 1 -1 -3 2 -0 3 1 3 0 -1 1 -0 -0 -1 -1 -2 4 1 1 3 2 -1 3 3 -1 1 -0 1 2 -0 2 -1
-2 1 1 4 2 -4 -2 2 7 5 2 3 0 0 1 1 1 1 2 3 -1 0 0 -1 -1 -1 -3 0 1 1 4 2 3 2 3 -0 2 -1 0 3 1 1 -2
-0 -0 1 0 4 1 -5 -3 -1 2 4 3 1 -2 1 2 -1 0 0 2 3 2 1 3 3 2 -1 -8 3 1 1 2 -0 3 2 -1 4 1 1 0 1 2 -1
3 2 2 0 4 0 5 2 1 -5 -4 -4 1 1 -3 3 2 -1 2 -2 -1 1 7 1 -0 -6 -3 -2 -4 3 1 2 -0 3 1 2 -1 0 1 0 3 1 -2
6 3 3 2 5 3 2 1 1 -2 2 -1 0 1 -0 0 1 -2 -0 -0 -1 -2 0 2 3 -1 -8 0 -0 -0 -4 -1 1 5 1 -0 -1 -1 0 -0 2 1 1
6 8 6 4 5 4 6 4 2 6 -1 -2 -2 2 3 1 3 0 0 -2 -1 -2 -1 1 2 0 2 -3 1 -9 -1 4 2 0 2 -0 0 -0 0 2 1 3 3
2 0 0 7 5 5 1 6 6 3 -3 1 4 3 -3 -2 1 4 -0 3 -1 2 -1 4 3 4 -4 -8 -0 -8 0 8 -5 1 2 0 1 0 1 0 0 2 2
3 5 3 -3 2 -0 5 3 5 4 -0 8 4 1 -2 0 -0 7 -3 3 -1 -3 -1 -1 -2 -2 -0 32 -1 1 4 5 -4 7 4 2 2 -2 -4 2 0 0 1
3 5 1 11 10 7 -3 -3 1 1 -4 3 4 -4 2 0 3 0 1 -5 0 -2 -1 1 2 -7 -0 3 5 -15 18 6 3 3 3 -2 1 0 -2 -2 2 2 3
Height
5828 5827 5828 5830 5831 5832 5833 5834 5835 5836 5837 5839 5840 5841 5842 5842 5843 5844 5846 5848 5849 5850 5851 5853 5854 5856 5857 5859 5859 5860 5861 5862 5863 5864 5864 5865 5866 5866 5867 5868 5870 5872 5872
5823 5824 5824 5825 5827 5828 5830 5831 5832 5834 5835 5837 5838 5839 5841 5841 5842 5843 5845 5846 5848 5849 5851 5853 5853 5856 5857 5858 5859 5860 5861 5862 5863 5864 5864 5865 5866 5867 5868 5869 5871 5873 5874
5819 5819 5821 5821 5822 5824 5826 5827 5829 5831 5832 5834 5835 5837 5839 5841 5841 5842 5844 5845 5847 5848 5850 5851 5853 5854 5856 5857 5858 5860 5861 5862 5863 5863 5864 5865 5866 5868 5868 5870 5872 5873 5874
5813 5815 5815 5817 5817 5818 5821 5823 5825 5827 5828 5830 5832 5834 5835 5838 5839 5840 5841 5844 5846 5848 5849 5850 5852 5853 5855 5856 5858 5859 5860 5861 5862 5863 5864 5865 5867 5868 5869 5870 5872 5873 5875
5810 5810 5812 5812 5814 5815 5816 5818 5820 5822 5824 5826 5829 5831 5832 5834 5836 5837 5839 5841 5844 5846 5847 5849 5850 5853 5854 5855 5856 5857 5858 5860 5861 5862 5864 5865 5867 5869 5869 5871 5872 5873 5875
5806 5807 5808 5808 5809 5811 5813 5813 5815 5817 5819 5821 5824 5826 5828 5830 5833 5834 5836 5838 5841 5844 5845 5847 5849 5851 5853 5854 5855 5856 5857 5859 5860 5861 5863 5864 5866 5868 5869 5870 5872 5873 5875
5802 5803 5803 5805 5805 5805 5807 5810 5811 5813 5815 5817 5818 5821 5823 5826 5829 5831 5833 5835 5838 5840 5842 5845 5847 5849 5850 5853 5854 5854 5855 5857 5858 5859 5861 5863 5865 5866 5868 5870 5871 5873 5874
5797 5797 5798 5798 5800 5801 5802 5804 5806 5808 5810 5812 5814 5816 5818 5821 5824 5827 5829 5832 5834 5837 5839 5841 5844 5846 5848 5850 5852 5852 5853 5855 5856 5858 5860 5862 5864 5865 5867 5869 5871 5872 5874
5791 5791 5792 5793 5794 5796 5798 5799 5800 5802 5804 5805 5808 5811 5813 5816 5819 5822 5825 5827 5830 5832 5835 5838 5840 5843 5846 5848 5849 5849 5851 5853 5855 5856 5858 5860 5862 5864 5866 5868 5870 5871 5872
5785 5786 5787 5787 5788 5789 5791 5793 5795 5797 5799 5800 5802 5805 5807 5809 5813 5816 5820 5822 5825 5827 5831 5834 5837 5839 5842 5845 5846 5848 5849 5851 5853 5855 5856 5859 5861 5863 5864 5866 5868 5869 5870
5781 5780 5781 5781 5781 5783 5784 5786 5787 5791 5793 5795 5797 5798 5800 5804 5807 5810 5814 5816 5819 5823 5826 5829 5832 5835 5838 5841 5843 5845 5847 5848 5850 5852 5854 5856 5858 5861 5862 5864 5866 5867 5868
5775 5774 5774 5775 5774 5775 5776 5778 5781 5784 5786 5789 5792 5793 5795 5797 5800 5803 5807 5810 5813 5816 5820 5824 5827 5830 5833 5836 5840 5842 5843 5846 5847 5849 5851 5853 5856 5858 5860 5861 5863 5864 5865
5764 5767 5767 5768 5768 5769 5770 5771 5773 5775 5778 5781 5784 5787 5789 5791 5794 5796 5800 5804 5807 5809 5813 5817 5822 5824 5828 5832 5835 5838 5840 5842 5843 5846 5848 5851 5852 5854 5856 5858 5860 5861 5862
5753 5756 5758 5759 5759 5760 5762 5764 5764 5766 5768 5771 5776 5778 5781 5785 5787 5789 5792 5796 5800 5803 5806 5810 5814 5818 5822 5826 5830 5833 5836 5838 5839 5842 5844 5847 5848 5851 5852 5854 5856 5858 5859
5740 5743 5746 5747 5748 5750 5752 5755 5757 5759 5760 5762 5766 5769 5772 5775 5779 5782 5785 5789 5792 5796 5800 5802 5806 5811 5815 5819 5823 5827 5830 5833 5836 5837 5841 5842 5845 5847 5849 5850 5852 5854 5855
5729 5731 5733 5736 5736 5737 5740 5744 5748 5750 5753 5754 5756 5759 5762 5766 5769 5773 5777 5781 5784 5787 5791 5795 5798 5803 5808 5813 5816 5820 5824 5827 5830 5833 5835 5838 5841 5842 5845 5846 5848 5850 5851
5712 5715 5716 5719 5725 5728 5731 5734 5736 5739 5742 5745 5749 5752 5754 5757 5760 5762 5766 5771 5775 5778 5782 5787 5791 5795 5800 5805 5808 5813 5817 5820 5824 5827 5829 5833 5835 5837 5840 5841 5843 5845 5846
5693 5698 5701 5703 5705 5712 5717 5721 5725 5728 5731 5734 5738 5742 5745 5748 5751 5754 5757 5761 5764 5770 5774 5779 5782 5786 5791 5796 5800 5805 5810 5813 5816 5820 5823 5825 5829 5831 5833 5836 5838 5840 5841
5675 5677 5682 5687 5690 5693 5699 5704 5710 5714 5717 5722 5726 5730 5734 5739 5742 5745 5749 5751 5755 5759 5764 5768 5773 5777 5781 5786 5792 5796 5801 5805 5809 5812 5815 5818 5821 5824 5827 5829 5832 5834 5835
5653 5657 5660 5665 5671 5676 5680 5686 5692 5697 5702 5707 5712 5718 5723 5727 5732 5735 5739 5743 5746 5749 5754 5758 5763 5767 5772 5777 5782 5786 5792 5797 5801 5804 5807 5810 5813 5816 5819 5822 5824 5827 5828
5628 5632 5637 5642 5648 5655 5662 5668 5671 5678 5685 5691 5697 5703 5709 5714 5719 5724 5729 5733 5735 5740 5744 5748 5753 5757 5762 5768 5772 5778 5782 5788 5792 5796 5799 5802 5804 5807 5811 5814 5817 5819 5820
5599 5604 5610 5616 5623 5630 5637 5644 5652 5659 5666 5674 5680 5687 5693 5699 5704 5710 5716 5721 5725 5728 5733 5737 5743 5748 5753 5758 5763 5767 5773 5779 5783 5787 5791 5793 5795 5798 5802 5805 5808 5811 5812
5566 5574 5582 5590 5596 5603 5611 5619 5628 5637 5645 5653 5661 5669 5677 5684 5690 5696 5702 5708 5712 5717 5722 5727 5732 5737 5743 5748 5753 5757 5763 5769 5773 5777 5780 5784 5786 5790 5793 5796 5799 5802 5805
5535 5541 5551 5559 5570 5578 5585 5593 5601 5609 5620 5632 5641 5649 5657 5665 5675 5682 5688 5694 5700 5705 5710 5716 5722 5727 5732 5737 5742 5747 5752 5757 5761 5767 5770 5774 5777 5781 5784 5787 5790 5793 5796
5508 5518 5529 5534 5542 5550 5559 5568 5577 5586 5596 5608 5618 5627 5637 5647 5656 5665 5672 5678 5686 5692 5699 5705 5710 5716 5721 5719 5730 5734 5740 5747 5750 5756 5759 5762 5766 5769 5774 5778 5781 5784 5786
5484 5492 5505 5514 5519 5526 5533 5544 5554 5563 5573 5585 5594 5605 5616 5627 5638 5647 5656 5663 5671 5678 5686 5693 5698 5704 5710 5714 5719 5719 5727 5735 5741 5744 5748 5751 5754 5758 5762 5767 5771 5774 5776